HF3P-11 Weather Reports


Display with metric or nautical units.
time (UTC)temp
F
wind
direction
speed
MPH
gust
MPH
rain 1hr
in
rain 24hr
in
rain mn
in
humidity
%
barometer
mb
20260905203453 55 252 6.0 13.0 0.00 0.18 0.18 99 1009.4
20260905203002 55 248 6.0 13.0 0.00 0.18 0.18 99 1009.4
20260905202453 54 233 6.0 11.0 0.00 0.18 0.18 99 1009.3
20260905202002 55 247 5.0 13.0 0.00 0.18 0.18 99 1009.4
20260905201453 55 262 6.0 13.0 0.00 0.18 0.18 99 1009.3
20260905201001 55 265 6.0 13.0 0.00 0.19 0.18 99 1009.2
20260905200453 55 261 5.0 12.0 0.00 0.19 0.18 99 1009.3
20260905200002 55 257 5.0 11.0 0.00 0.19 0.18 99 1009.4
20260905195453 55 253 4.0 11.0 0.00 0.19 0.18 99 1009.2
20260905195001 55 247 5.0 15.0 0.00 0.19 0.18 99 1009.1
20260905194453 55 248 6.0 15.0 0.00 0.19 0.18 99 1009.3
20260905193953 55 250 6.0 14.0 0.00 0.19 0.18 99 1009.0
20260905193501 55 250 5.0 13.0 0.00 0.19 0.18 99 1009.0
20260905192954 55 260 4.0 11.0 0.00 0.19 0.18 99 1008.9
20260905192502 55 265 4.0 13.0 0.00 0.19 0.18 99 1008.9
20260905191953 55 255 5.0 13.0 0.00 0.19 0.18 99 1008.7
20260905191502 56 255 6.0 13.0 0.00 0.19 0.18 99 1008.7
20260905190953 56 267 7.0 13.0 0.00 0.19 0.18 99 1008.7
20260905190502 56 247 7.0 15.0 0.00 0.19 0.18 99 1008.7
20260905185953 56 229 6.0 15.0 0.00 0.19 0.18 99 1008.4
20260905185502 56 246 5.0 13.0 0.00 0.19 0.18 99 1008.5
20260905184953 54 260 6.0 13.0 0.00 0.19 0.18 99 1008.4
20260905184502 56 250 6.0 13.0 0.00 0.19 0.18 99 1008.3
20260905183953 56 240 4.0 13.0 0.00 0.19 0.18 99 1008.4
20260905183502 56 254 4.0 13.0 0.00 0.19 0.18 99 1008.3
20260905182953 56 252 5.0 15.0 0.00 0.19 0.18 99 1008.4
20260905182502 56 257 5.0 15.0 0.00 0.19 0.18 99 1008.3
20260905181954 56 259 5.0 11.0 0.00 0.19 0.18 99 1008.4
20260905181503 56 250 5.0 11.0 0.00 0.19 0.18 99 1008.4
20260905180954 56 235 6.0 11.0 0.00 0.19 0.18 99 1008.2
20260905180503 56 232 5.0 11.0 0.00 0.19 0.18 99 1008.4
20260905175953 56 254 5.0 11.0 0.00 0.19 0.18 99 1008.1
20260905175502 56 262 4.0 11.0 0.00 0.19 0.18 99 1008.1
20260905174953 56 264 4.0 12.0 0.00 0.19 0.18 99 1007.9
20260905174501 56 255 5.0 12.0 0.00 0.19 0.18 99 1007.9
20260905173953 56 249 5.0 12.0 0.00 0.19 0.18 99 1007.9
20260905173502 56 244 6.0 14.0 0.00 0.19 0.18 99 1007.7
20260905173002 56 251 6.0 19.0 0.01 0.19 0.18 99 1007.8
20260905172453 54 253 7.0 19.0 0.02 0.20 0.18 99 1007.7
20260905172002 57 249 7.0 19.0 0.04 0.20 0.18 99 1008.0
20260905171454 57 258 7.0 19.0 0.06 0.20 0.18 99 1007.7
20260905171003 57 242 6.0 19.0 0.06 0.30 0.18 99 1007.8
20260905170453 56 229 6.0 14.0 0.06 0.44 0.18 99 1007.6
20260905170003 57 228 6.0 14.0 0.06 0.44 0.18 99 1007.4
20260905165502 56 226 7.0 14.0 0.06 0.47 0.18 99 1007.7
20260905164954 56 238 7.0 17.0 0.06 0.50 0.18 99 1007.6
20260905164503 56 252 8.0 20.0 0.06 0.51 0.18 99 1007.6
20260905164003 57 260 8.0 20.0 0.06 0.51 0.18 100 1007.6
20260905163454 57 267 9.0 22.0 0.06 0.51 0.18 97 1007.8
20260905163003 57 271 12.0 27.0 0.05 0.50 0.17 97 1007.6
20260905162503 58 270 10.0 27.0 0.04 0.48 0.15 97 1007.8
20260905161953 58 254 5.0 16.0 0.02 0.47 0.14 97 1007.4
20260905161503 58 238 4.0 9.0 0.00 0.45 0.12 97 1007.3
20260905160954 58 233 4.0 9.0 0.00 0.45 0.12 96 1007.1
20260905160503 58 223 4.0 9.0 0.04 0.45 0.12 96 1007.0
20260905155954 58 218 4.0 9.0 0.04 0.45 0.12 96 1006.8
20260905155502 58 224 4.0 10.0 0.04 0.45 0.12 95 1006.8
20260905154953 58 227 4.0 10.0 0.04 0.45 0.12 95 1006.8
20260905154503 58 235 4.0 9.0 0.04 0.45 0.12 95 1006.8
20260905153954 58 245 5.0 11.0 0.04 0.45 0.12 94 1007.1
20260905153502 58 237 6.0 11.0 0.04 0.45 0.12 94 1006.9
20260905152954 59 240 6.0 13.0 0.04 0.45 0.12 94 1006.8
20260905152502 59 238 7.0 13.0 0.04 0.45 0.12 94 1007.0
20260905151954 59 236 8.0 18.0 0.04 0.45 0.12 94 1007.1
20260905151502 60 255 8.0 18.0 0.04 0.45 0.12 93 1007.1
20260905150953 60 277 6.0 16.0 0.04 0.45 0.12 92 1007.2
20260905150455 62 259 5.0 9.0 0.00 0.41 0.08 91 1007.4
20260905150002 62 256 4.0 9.0 0.00 0.41 0.08 91 1007.0
20260905145454 62 273 4.0 11.0 0.00 0.41 0.08 90 1006.9
20260905145003 62 280 4.0 11.0 0.00 0.41 0.08 90 1006.8
20260905144453 62 283 4.0 11.0 0.01 0.41 0.08 91 1006.9
20260905144003 62 283 3.0 11.0 0.01 0.41 0.08 92 1006.7
20260905143502 62 286 3.0 9.0 0.01 0.41 0.08 94 1007.0
20260905142953 61 293 3.0 9.0 0.01 0.41 0.08 94 1006.8
20260905142502 60 287 3.0 8.0 0.01 0.41 0.08 94 1006.8
20260905141954 60 279 3.0 8.0 0.02 0.41 0.08 94 1006.9
20260905141504 60 264 3.0 10.0 0.02 0.41 0.08 94 1006.9
20260905140953 60 249 6.0 10.0 0.02 0.41 0.08 94 1006.9
20260905140453 60 265 5.0 10.0 0.02 0.41 0.08 94 1006.8
20260905140002 60 304 3.0 14.0 0.02 0.41 0.08 94 1006.7
20260905135453 60 305 5.0 16.0 0.02 0.41 0.08 92 1006.7
20260905135004 60 323 7.0 17.0 0.02 0.41 0.08 91 1007.1
20260905134454 61 342 7.0 18.0 0.01 0.40 0.07 89 1006.8
20260905134003 61 347 7.0 21.0 0.01 0.40 0.07 89 1007.1
20260905133454 62 328 7.0 21.0 0.01 0.40 0.07 90 1007.0
20260905133003 62 294 5.0 15.0 0.01 0.40 0.07 90 1006.8
20260905132454 63 270 3.0 11.0 0.01 0.40 0.07 90 1006.4
20260905131954 63 265 4.0 11.0 0.00 0.39 0.06 89 1006.4
20260905131503 63 254 4.0 8.0 0.00 0.39 0.06 88 1006.6
20260905131003 64 228 3.0 8.0 0.00 0.39 0.06 88 1006.4
20260905130454 64 242 4.0 17.0 0.00 0.39 0.06 88 1006.5
20260905130003 64 254 5.0 17.0 0.00 0.39 0.06 88 1006.6
20260905125454 64 255 4.0 14.0 0.00 0.39 0.06 89 1006.5
20260905125002 63 255 5.0 12.0 0.00 0.39 0.06 91 1006.4
20260905124503 63 252 6.0 12.0 0.00 0.39 0.06 93 1006.4
20260905124003 62 250 5.0 13.0 0.00 0.39 0.06 93 1006.5
20260905123454 62 244 7.0 13.0 0.00 0.39 0.06 93 1006.4
20260905123002 62 227 7.0 14.0 0.01 0.39 0.06 93 1006.7
20260905122454 62 210 6.0 14.0 0.01 0.39 0.06 94 1006.5
20260905122003 62 207 6.0 13.0 0.02 0.39 0.06 95 1006.6
20260905121502 61 226 6.0 13.0 0.04 0.39 0.06 95 1006.6
20260905121003 61 262 7.0 13.0 0.04 0.39 0.06 94 1006.7
20260905120502 60 253 7.0 10.0 0.04 0.39 0.06 94 1006.7
20260905120003 60 238 6.0 11.0 0.04 0.39 0.06 94 1006.8
20260905115454 60 234 6.0 12.0 0.04 0.39 0.06 92 1006.9
20260905115002 59 236 5.0 14.0 0.04 0.39 0.06 92 1006.9
20260905114454 59 253 5.0 14.0 0.05 0.39 0.06 91 1006.9
20260905114003 59 270 6.0 17.0 0.05 0.39 0.06 89 1007.0
20260905113453 60 287 7.0 17.0 0.05 0.39 0.06 88 1006.9
20260905113002 60 291 8.0 23.0 0.04 0.38 0.05 86 1007.1
20260905112504 62 285 9.0 23.0 0.04 0.38 0.05 85 1007.2
20260905111954 63 276 9.0 21.0 0.02 0.37 0.04 83 1007.3
20260905111502 64 265 8.0 20.0 0.01 0.35 0.02 81 1006.9
20260905110955 63 265 8.0 20.0 0.01 0.35 0.02 81 1006.8
20260905110502 63 265 9.0 17.0 0.01 0.35 0.02 81 1006.7
20260905105954 63 246 9.0 21.0 0.01 0.35 0.02 81 1006.7
20260905105503 64 230 10.0 21.0 0.01 0.35 0.02 79 1006.4
20260905105003 65 226 9.0 21.0 0.01 0.35 0.02 77 1006.5
20260905104503 65 233 11.0 22.0 0.00 0.34 0.01 74 1006.4
20260905103954 66 241 9.0 22.0 0.00 0.34 0.01 74 1006.4
20260905103502 65 253 7.0 17.0 0.00 0.34 0.01 74 1006.3
20260905102954 65 252 7.0 17.0 0.00 0.34 0.01 75 1006.2
20260905102454 65 262 8.0 19.0 0.00 0.34 0.01 74 1006.2
20260905101954 65 266 9.0 21.0 0.00 0.34 0.01 74 1006.2
20260905101503 65 257 8.0 21.0 0.00 0.34 0.01 75 1006.5
20260905100954 65 264 7.0 21.0 0.00 0.34 0.01 74 1006.2
20260905100503 65 265 6.0 13.0 0.00 0.34 0.01 76 1006.4
20260905100002 65 258 6.0 17.0 0.00 0.34 0.01 76 1006.4
20260905095502 64 262 8.0 26.0 0.00 0.34 0.01 74 1006.2
20260905095008 65 266 9.0 26.0 0.00 0.34 0.01 73 1006.3
20260905094504 65 271 9.0 24.0 0.00 0.34 0.01 74 1006.3
20260905094003 65 252 9.0 23.0 0.00 0.34 0.01 75 1006.2
20260905093454 64 247 9.0 23.0 0.00 0.34 0.01 77 1006.3
20260905092954 64 262 9.0 22.0 0.00 0.34 0.01 75 1006.2
20260905092454 65 245 8.0 23.0 0.00 0.34 0.01 76 1006.0
20260905091954 64 243 9.0 23.0 0.00 0.34 0.01 79 1006.1
20260905091454 64 263 9.0 23.0 0.00 0.34 0.01 77 1006.2
20260905090954 64 267 7.0 22.0 0.00 0.34 0.01 76 1006.2
20260905090454 64 265 5.0 14.0 0.00 0.34 0.01 81 1006.1
20260905090003 64 267 6.0 14.0 0.00 0.34 0.01 81 1006.2
20260905085503 64 287 8.0 23.0 0.00 0.34 0.01 80 1006.1
20260905084954 64 285 8.0 23.0 0.00 0.34 0.01 79 1005.9
20260905084503 64 262 9.0 21.0 0.00 0.34 0.01 82 1005.8
20260905083954 63 255 9.0 21.0 0.00 0.34 0.01 82 1005.9
20260905083454 63 251 9.0 21.0 0.00 0.34 0.01 82 1005.9
20260905083002 63 255 8.0 21.0 0.00 0.34 0.01 82 1005.8
20260905082454 62 262 8.0 23.0 0.00 0.34 0.01 82 1005.8
20260905082003 63 266 9.0 23.0 0.00 0.34 0.01 82 1005.8
20260905081504 63 269 9.0 20.0 0.00 0.34 0.01 83 1005.5
20260905080954 63 266 8.0 19.0 0.00 0.34 0.01 83 1005.6
20260905080503 63 270 7.0 18.0 0.00 0.34 0.01 86 1005.4
20260905080003 63 267 8.0 18.0 0.00 0.34 0.01 86 1005.5
20260905075503 63 267 8.0 17.0 0.00 0.34 0.01 87 1005.4
20260905075003 62 262 8.0 23.0 0.00 0.34 0.01 88 1005.4
20260905074454 62 262 8.0 23.0 0.00 0.34 0.01 87 1005.3
20260905073954 62 283 9.0 23.0 0.00 0.34 0.01 88 1005.5
20260905073455 62 275 10.0 23.0 0.00 0.34 0.01 87 1005.5
20260905072955 62 271 8.0 20.0 0.00 0.34 0.01 89 1005.5
20260905072503 62 278 7.0 20.0 0.00 0.34 0.01 89 1005.4
20260905072003 62 273 6.0 19.0 0.00 0.34 0.01 90 1005.1
20260905071455 62 271 5.0 15.0 0.00 0.34 0.01 91 1005.2
20260905070954 61 270 5.0 15.0 0.00 0.34 0.01 91 1005.0
20260905070503 61 259 5.0 13.0 0.00 0.34 0.01 90 1004.8
20260905065954 61 247 7.0 16.0 0.00 0.34 0.01 90 1004.8
20260905065503 61 257 7.0 17.0 0.00 0.34 0.01 89 1004.9
20260905065003 61 266 6.0 17.0 0.00 0.34 0.01 89 1004.9
20260905064454 61 277 6.0 21.0 0.00 0.34 0.01 90 1004.9
20260905064003 61 264 8.0 21.0 0.00 0.34 0.01 90 1004.7
20260905063454 61 264 9.0 21.0 0.00 0.34 0.01 92 1004.8
20260905062954 61 262 9.0 21.0 0.00 0.34 0.01 91 1004.6
20260905062503 61 260 9.0 21.0 0.00 0.34 0.01 92 1004.7
20260905061954 61 275 8.0 21.0 0.00 0.34 0.01 92 1004.4
20260905061502 62 262 10.0 23.0 0.00 0.34 0.01 95 1004.5
20260905060955 62 283 9.0 23.0 0.00 0.34 0.01 97 1004.4
20260905060503 60 286 8.0 17.0 0.00 0.34 0.01 100 1004.4
20260905055954 60 268 8.0 21.0 0.00 0.34 0.01 100 1004.4
20260905055503 60 260 8.0 21.0 0.00 0.34 0.01 100 1004.4
20260905055003 61 242 8.0 17.0 0.00 0.34 0.01 100 1004.2
20260905054503 60 249 9.0 17.0 0.00 0.34 0.01 100 1004.1
20260905054003 60 257 8.0 17.0 0.00 0.34 0.01 100 1004.2
20260905053454 60 256 8.0 18.0 0.00 0.34 0.01 99 1004.2
20260905053002 60 247 8.0 18.0 0.00 0.34 0.01 99 1004.0
20260905052454 59 241 7.0 18.0 0.00 0.34 0.01 99 1003.8
20260905052002 59 250 8.0 17.0 0.00 0.34 0.01 99 1003.9
20260905051503 59 250 9.0 17.0 0.00 0.34 0.01 99 1003.9
20260905051004 59 235 7.0 16.0 0.00 0.34 0.01 99 1003.8
20260905050454 59 231 8.0 17.0 0.00 0.34 0.01 99 1003.8
20260905045956 59 237 7.0 17.0 0.00 0.34 0.01 99 1003.8
20260905045503 59 246 8.0 17.0 0.00 0.34 0.01 99 1003.8
20260905044954 59 242 8.0 17.0 0.00 0.34 0.01 99 1003.6
20260905044455 58 241 7.0 15.0 0.00 0.34 0.01 99 1003.6
20260905044003 59 240 6.0 15.0 0.00 0.34 0.01 99 1003.5
20260905043455 59 235 7.0 15.0 0.00 0.34 0.01 99 1003.5
20260905043004 58 248 6.0 15.0 0.00 0.34 0.01 99 1003.2
20260905042455 58 253 6.0 13.0 0.00 0.34 0.01 99 1003.4
20260905042004 59 242 6.0 14.0 0.00 0.34 0.01 99 1003.1
20260905041454 59 253 7.0 14.0 0.00 0.34 0.01 99 1003.3
20260905041002 59 269 7.0 14.0 0.00 0.34 0.01 99 1003.3
20260905040454 59 259 6.0 14.0 0.00 0.34 0.01 99 1002.9
20260905040003 59 247 6.0 14.0 0.00 0.34 0.01 99 1003.0
20260905035454 59 246 6.0 14.0 0.00 0.34 0.01 99 1002.9
20260905035003 59 263 6.0 14.0 0.00 0.34 0.01 99 1002.9
20260905034454 59 259 6.0 15.0 0.00 0.34 0.01 99 1002.9
20260905034003 59 247 6.0 15.0 0.00 0.34 0.01 99 1002.9
20260905033454 59 257 5.0 14.0 0.00 0.34 0.01 99 1002.7
20260905033003 59 245 5.0 14.0 0.00 0.34 0.01 99 1002.8
20260905032455 59 228 5.0 13.0 0.00 0.34 0.01 99 1002.6
20260905032003 59 224 5.0 13.0 0.00 0.34 0.01 99 1002.7
20260905031454 59 222 5.0 13.0 0.00 0.34 0.01 99 1002.5
20260905031003 60 222 5.0 13.0 0.00 0.34 0.01 99 1002.5
20260905030455 60 238 5.0 12.0 0.00 0.34 0.01 100 1002.6
20260905030004 60 262 5.0 12.0 0.00 0.34 0.01 100 1002.4
20260905025455 60 280 5.0 12.0 0.00 0.34 0.01 100 1002.4
20260905024954 60 281 6.0 12.0 0.00 0.34 0.01 100 1002.3
20260905024454 60 276 6.0 11.0 0.00 0.34 0.01 100 1002.3
20260905024004 60 265 5.0 11.0 0.00 0.34 0.01 99 1002.2
20260905023455 60 268 4.0 15.0 0.00 0.34 0.01 99 1002.2
20260905023003 60 278 6.0 16.0 0.00 0.34 0.01 99 1002.1
20260905022455 60 277 7.0 16.0 0.00 0.34 0.01 99 1002.3
20260905022003 60 273 7.0 15.0 0.00 0.34 0.01 99 1002.2
20260905021455 60 284 6.0 19.0 0.00 0.34 0.01 99 1002.2
20260905021003 60 310 5.0 19.0 0.00 0.34 0.01 99 1002.0
20260905020503 60 294 4.0 15.0 0.00 0.34 0.01 99 1002.1
20260905020003 60 269 5.0 15.0 0.00 0.34 0.01 99 1001.9
20260905015455 60 276 5.0 17.0 0.00 0.34 0.01 99 1001.8
20260905015004 60 268 6.0 17.0 0.00 0.34 0.01 99 1001.8
20260905014503 63 269 5.0 17.0 0.00 0.34 0.01 99 1001.7
20260905013955 60 272 6.0 17.0 0.00 0.34 0.01 99 1001.7
20260905013503 60 278 7.0 18.0 0.00 0.34 0.01 99 1001.6
20260905012954 60 276 7.0 18.0 0.00 0.34 0.01 99 1001.7
20260905012502 60 270 6.0 18.0 0.00 0.34 0.01 99 1001.5
20260905011954 61 268 7.0 19.0 0.00 0.34 0.01 99 1001.5
20260905011502 60 261 8.0 19.0 0.00 0.34 0.01 99 1001.6
20260905010955 60 253 6.0 19.0 0.00 0.34 0.01 99 1001.7
20260905010503 61 263 6.0 17.0 0.00 0.34 0.01 99 1001.7
20260905010004 61 271 7.0 17.0 0.00 0.34 0.01 99 1001.4
20260905005455 61 263 7.0 21.0 0.00 0.34 0.01 99 1001.4
20260905005003 61 267 8.0 21.0 0.00 0.34 0.01 99 1001.2
20260905004454 61 269 9.0 23.0 0.00 0.34 0.01 99 1001.2
20260905004003 61 266 10.0 23.0 0.00 0.34 0.01 99 1001.2
20260905003454 61 267 10.0 21.0 0.00 0.34 0.01 99 1001.1
20260905002955 60 266 8.0 21.0 0.00 0.34 0.01 99 1000.8
20260905002503 60 252 9.0 22.0 0.00 0.34 0.01 99 1000.7
20260905002003 60 235 9.0 22.0 0.00 0.34 0.01 99 1000.7
20260905001504 60 245 9.0 17.0 0.00 0.34 0.01 99 1000.8
20260905000955 60 267 10.0 17.0 0.00 0.34 0.01 99 1000.6
20260905000504 60 256 10.0 23.0 0.00 0.34 0.01 99 1000.6
20260904235955 60 236 8.0 23.0 0.00 0.34 0.01 99 1000.7
20260904235454 60 244 8.0 19.0 0.00 0.34 0.01 99 1000.6
20260904235004 60 253 9.0 21.0 0.00 0.34 0.01 99 1000.5
20260904234455 60 248 9.0 23.0 0.00 0.34 0.01 99 1000.4
20260904234003 60 244 9.0 23.0 0.00 0.34 0.01 99 1000.6
20260904233455 60 263 9.0 21.0 0.00 0.34 0.01 99 1000.4
20260904233003 60 270 8.0 21.0 0.00 0.34 0.01 99 1000.3
20260904232455 60 247 8.0 17.0 0.00 0.34 0.01 99 1000.4
20260904232003 60 242 8.0 17.0 0.00 0.34 0.01 99 1000.0
20260904231503 60 257 8.0 17.0 0.00 0.34 0.01 99 1000.0
20260904230955 60 270 8.0 15.0 0.01 0.34 0.01 99 999.9
20260904230503 60 265 7.0 21.0 0.01 0.34 0.01 99 999.9
20260904225955 60 262 8.0 21.0 0.01 0.34 0.01 99 999.9
20260904225503 60 265 7.0 20.0 0.01 0.34 0.01 99 999.8
20260904224955 60 255 6.0 17.0 0.01 0.34 0.01 99 999.9
20260904224503 60 242 7.0 17.0 0.01 0.34 0.01 99 999.8
20260904223955 60 244 8.0 19.0 0.01 0.34 0.01 99 999.8
20260904223503 60 236 8.0 19.0 0.01 0.34 0.01 99 1000.0
20260904223005 60 233 9.0 20.0 0.01 0.34 0.01 99 999.7
20260904222504 60 260 10.0 20.0 0.01 0.34 0.01 99 999.6
20260904222004 60 268 10.0 19.0 0.01 0.34 0.01 99 999.6
20260904221454 60 244 9.0 21.0 0.01 0.34 0.01 99 999.8
20260904221004 60 230 8.0 21.0 0.00 0.33 0.00 99 999.5
20260904220455 60 230 8.0 19.0 0.00 0.33 0.00 99 999.4
20260904215957 60 240 9.0 21.0 0.00 0.33 0.00 99 999.5
20260904215455 60 258 10.0 22.0 0.00 0.33 0.33 99 999.3
20260904215006 60 254 10.0 22.0 0.00 0.33 0.33 99 999.0
20260904214455 60 241 9.0 21.0 0.00 0.33 0.33 99 999.0
20260904214004 60 233 9.0 21.0 0.00 0.33 0.33 99 998.9
20260904213455 60 232 9.0 20.0 0.00 0.33 0.33 99 998.9
20260904213004 60 242 8.0 19.0 0.00 0.33 0.33 99 998.8
20260904212455 60 256 8.0 17.0 0.00 0.33 0.33 99 998.9
20260904212005 61 246 9.0 17.0 0.00 0.33 0.33 99 998.9
20260904211455 61 229 9.0 17.0 0.00 0.33 0.33 99 998.7
20260904211004 61 227 8.0 15.0 0.01 0.33 0.33 99 998.6
20260904210455 62 239 8.0 17.0 0.01 0.33 0.33 99 998.0
20260904205955 62 245 8.0 17.0 0.01 0.33 0.33 99 998.0
20260904205455 62 237 7.0 16.0 0.01 0.33 0.33 99 998.0
20260904205004 62 244 6.0 15.0 0.01 0.33 0.33 99 997.9
20260904204504 62 248 6.0 14.0 0.01 0.33 0.33 99 998.0
20260904204004 63 239 6.0 17.0 0.01 0.33 0.33 99 998.0